Location: Mahannah Oil Field
(37.4664°N, 96.6003°W)
Time: 15:48:45
(UTC+00:00)

Vanguard 2 Rocket - Pass Details

Date: 24 June 2021
Orbit: 554 x 3325 km, 32.9° (Epoch: 24 July)

Event Time Altitude Azimuth Distance (km) Brightness Sun altitude
Rises 02:26:37 0° 262° (W) 7,228 12.2 -6.7°
Reaches altitude 10° 02:31:25 10° 261° (W) 6,275 11.8 -7.4°
Maximum altitude 02:51:46 76° 180° (S) 2,981 9.4 -10.6°
Drops below altitude 10° 03:05:58 10° 98° (E) 4,600 10.0 -12.7°
Enters shadow 03:07:36 - 97° (E) 4,984 10.2 -12.9°
